Вернуться в каталог

ATLAS 5 CENTAUR DEB

АктивенHEO
NORAD 44677·DEBRIS·🇺🇸 United States

Запущен Oct 17, 2018 с Cape Canaveral Space Force Station

Loading…

Ближайшие Пролёты (ближайшие 24 часа)

TLE

СвежийSource: Space-Track

Эпоха: Sep 13, 2026, 21:13 UTC

1 44677U 18079AP  26256.88407251 -.00000148  00000-0  00000-0 0  9993
2 44677  13.1501  49.6442 4410283 284.0774  32.0174  1.78490729 47368

Отслеживайте ATLAS 5 CENTAUR DEB в реальном времени с AllMySat

Download on the App Store